STARLINK-5001 (53924 NORAD) Tracking and Keplerian Element Data

This shows tracking and keplerian element data for the satellite.

Feedback or suggestion? Click here.




ElementValue
Catalog53924
NameSTARLINK-5001
Epoch Orbit945
Epoch Day325.25001157
Epoch Year2022
RAAN329.4849
Inclination53.2144
Eccentricity0.000428
Argument of Perigee6.9211
Mean Anonmoly103.9049
Mean Motion15.73200889
Decay Rate-0.00058148
L11 53924U 22119AQ 22325.25001157 -.00058148 00000+0 -41246-3 0 9990
L22 53924 53.2144 329.4849 0004280 6.9211 103.9049 15.73200889 9453



Live tracking and technical data element details for STARLINK-5001 (NORAD 53924). STARLINK-5001 can be tracked NOW for your location showing map with azimuth and elevation plus other details from your city location.







IsCatalogInMostPopularTable: catalog: 53924, numindb: 1
Update: records affected: 1



GetName: 53924 STARLINK-5001

Hit Count: updated at: Mon, 28 Nov 2022 21:03:21 GMT